COSMOS 2499 DEB, 56569

Orbit data source: Space-Track

COSMOS 2499 DEB, 56569 is space debris in LEO originally from a launch on Fri, 23 May 2014 UTC launched from the Plesetsk Missile And Space Complex (PKMTR). Debris objects in space refer to the collection of defunct objects orbiting the Earth. Examples of debris include non-operational satellites, rocket bodies, and fragments generated from explosions, collisions, or faulty payload assembly.

Loading next visibility...
Identifier
56569, 2014-028BC
Orbit
LEO
Country
Flag of CISCIS
Related business
Manufacturer
TsNIIKhM
Mission
Spacecraft
Bus & Motor
Unknown
Mass
Unknown
Launch date (UTC)
2014-05-23 (12 years ago)
Launch vehicle
Unknown
Launch site
Plesetsk Missile And Space Complex (PKMTR)
Object type
Payload
Rocket body
Debris
Shape & HBR
Unknown shape, 0.1 m
Radar Cross Section
Small (<0.1 m²)

Expand to show TLE details & history
Last TLE update: 4 months ago

TLE from 4 months ago
0 COSMOS 2499 DEB
1 56569U 14028BC  25224.25450039  .00007167  00000-0  15265-1 0  9990
2 56569  82.2819  69.3271 0343290 302.8816  53.9695 13.10592339121861
Epoch: 2025-08-12T06:06Z
TLE epoch observation values (Epoch: 2025-08-12T06:06:28.833Z)
Latitude
-0.00006°
Longitude
16.75718°
Altitude
1,076.231 km
Speed
7.385 km/s
True Right ascension
04h 37m 18s
True Declination
0° 00' 00"
Sunlit
Object was in daylight at epoch
Visualization orbit readout
Latitude
Unknown
Longitude
Unknown
Altitude
Unknown
Speed
Unknown
Apparent Right ascension
Unknown
Apparent Declination
Unknown
Sunlit
N/A
Visualization observer readout
Local Sidereal Time
11:11:19
Azimuth
Unknown
Elevation
Unknown
Doppler factor
Unknown
Orbital elements
Apogee altitude
1,478.9 km
Perigee altitude
957.356 km
Semi-major axis
7,596.265 km
Eccentricity
0.03433
Inclination
82.2819°
RAAN
69.3271°
Arg. of periapsis
302.8816°
True anomaly
57.23131°
Mean anomaly
53.9695°
Eccentric anomaly
55.59227°
Mean motion
3.27826 °/min
Orbital period
109.81 mins
BSTAR
0.015265
Loading maneuver chart data...
Computing Atmospheric mass density...
Loading historical data...
Loading historical data...
Loading historical data...
Loading historical data...
Loading historical data...
Loading historical data...
Loading historical data...

Documentation

Showing up to 5 results
|